Regional Weather Roundup
Issued by NWS Boston, MA

Current Version | Previous Version | Text Only | Print | Product List | Glossary Off
Versions: 1 2 3 4 5 6 7 8 9 10 11 12 13 14 15 16 17 18 19 20 21 22 23 24 25 26 27 28 29 30 31 32 33 34 35 36 37 38 39 40 41 42 43 44 45 46 47 48 49 50
000 ASUS41 KBOX 220510 RWRBOX REGIONAL WEATHER ROUNDUP NATIONAL WEATHER SERVICE BOSTON/NORTON MA 100 AM EDT TUE MAY 22 2018 NOTE: "FAIR" INDICATES FEW OR NO CLOUDS BELOW 12,000 FEET WITH NO SIGNIFICANT WEATHER AND/OR OBSTRUCTIONS TO VISIBILITY. MAZALL-220600- EASTERN MASSACHUSETTS CITY SKY/WX TMP DP RH WIND PRES REMARKS BOSTON FAIR 62 49 62 SW10 30.12F BEVERLY FAIR 55 49 80 CALM 30.12R LAWRENCE FAIR 61 47 59 CALM 30.14R BEDFORD FAIR 54 50 86 W3 30.12R BLUE HILL N/A 58 48 69 SW9 30.13S NORWOOD FAIR 54 49 83 CALM 30.13S MARSHFIELD FAIR 57 50 77 W6 30.13S PLYMOUTH FAIR 53 48 83 SW3 30.14S TAUNTON FAIR 50 48 93 CALM 30.14S NEW BEDFORD FAIR 51 50 96 CALM 30.14S $$ MAZALL-220600- CAPE COD AND THE ISLANDS CITY SKY/WX TMP DP RH WIND PRES REMARKS FALMOUTH FAIR 52 50 93 SW5 30.16S HYANNIS FAIR 55 48 77 SW8 30.13S CHATHAM FAIR 57 52 83 SW6 30.15F PROVINCETOWN FAIR 54 50 86 S7 30.14S NANTUCKET FAIR 50 50 100 SW7 30.16S MARTHAS VNYRD FAIR 53 49 86 SW6 30.15S $$ MAZALL-220600- CENTRAL AND WESTERN MASSACHUSETTS CITY SKY/WX TMP DP RH WIND PRES REMARKS WORCESTER FAIR 59 44 57 W8 30.15S FITCHBURG FAIR 58 48 69 NW3 30.14S ORANGE FAIR 51 50 96 CALM 30.16S SPRINGFIELD FAIR 53 50 92 CALM 30.14S WESTFIELD FAIR 53 50 89 CALM 30.15R NORTH ADAMS FAIR 48 46 93 CALM 30.17S PITTSFIELD FAIR 50 45 83 CALM 30.17R $$ RIZALL-220600- RHODE ISLAND CITY SKY/WX TMP DP RH WIND PRES REMARKS PROVIDENCE FAIR 56 50 80 SW3 30.15S NEWPORT FAIR 52 49 89 CALM 30.15S BLOCK ISLAND N/A N/A N/A N/A MISG N/A SMITHFIELD FAIR 51 49 92 MISG 30.15S WESTERLY FAIR 55 52 89 CALM 30.16S $$ CTZALL-220600- CONNECTICUT CITY SKY/WX TMP DP RH WIND PRES REMARKS BRADLEY INTL MOCLDY 57 49 74 CALM 30.15R HARTFORD FAIR 58 53 84 S3 30.15R BRIDGEPORT FAIR 60 53 77 SW3 30.16S DANBURY FAIR 53 51 93 CALM 30.17S GROTON FAIR 53 51 93 S7 30.16R NEW HAVEN FAIR 59 54 83 CALM 30.16S CHESTER FAIR 57 52 82 SW7 30.16S MERIDEN FAIR 53 52 96 CALM 30.16S WILLIMANTIC FAIR 54 51 90 CALM 30.16S OXFORD FAIR 58 50 75 CALM 30.17S $$ MEZ002-015-021-024-NHZ003-005-008-011-012-014-VTZ005-008-220600- NORTHERN NEW ENGLAND CITY SKY/WX TMP DP RH WIND PRES REMARKS PORTLAND ME FAIR 54 47 77 CALM 30.11S BANGOR ME FAIR 57 38 48 E8 30.11R CONCORD NH FAIR 51 47 86 E3 30.14R MANCHESTER NH FAIR 61 48 62 S3 30.12R NASHUA NH FAIR 55 50 83 NW5 30.14R PORTSMOUTH NH MOCLDY 59 44 57 W5 30.10S JAFFREY NH FAIR 51 48 89 S5 30.16S KEENE NH FAIR 49 46 90 CALM 30.16S BURLINGTON VT FAIR 55 32 41 SE3 30.14R MT. WASHINGTON MOCLDY 41 34 75 NW35 N/A WCI 29 $$ NYZ052-076-220600- EASTERN NEW YORK CITY SKY/WX TMP DP RH WIND PRES REMARKS ALBANY MOCLDY 57 47 69 CALM 30.15R NEW YORK CITY MOCLDY 66 44 45 SW5 30.16R $$ ANZALL-220600- MARINE OBSERVATIONS STATION/POSITION TIME TEMP WIND PRES VSBY WAVE AIR SEA DIR/SP/G HT/PER (UTC) (F) (DEG/KT/KT) (MB) (MI) (FT/S) BOSTON BUOY 0450 57 55 230/ 8/ 10 1019.9S 1/ 9 BUZZARDS BAY 0400 55 230/ 10/ 11 1021.6F NANTUCKET SOUND 0350 54 51 230/ 8/ 8 1021.3 1 MASS BAY-STELLWA 0404 56 54 1018.5F 2/ 8 ISLE OF SHOALS 0400 65 330/ 9/ 10 1019.2R S OF BLOCK IS 0443 51 N/A 3/ 7 $$ ......................KEY......................... SKY/WX - SKY CONDITION/PRESENT WEATHER TMP - TEMPERATURE IN FAHRENHEIT DWPT - DEWPOINT IN FAHRENHEIT RH - RELATIVE HUMIDITY IN PERCENT WIND - DIRECTION AND SPEED IN MPH PRES - MEAN SEA LEVEL PRESSURE IN INCHES OF HG WCI - WIND CHILL INDEX VSB - VISIBILITY IN MILES HX - HEAT INDEX TC - TEMPERATURE IN CELSIUS VRB - VARIABLE WIND DIRECTION N/A - NOT AVAILABLE

USA.gov is the U.S. government's official web portal to all federal, state and local government web resources and services.